RH
38 39 40 39 38 37 36 36 36 37 39 40 42 43 44 45 46 47 48 47 45 44 42 42 44 47 48 49 50 51 50 48 43 35 28 23 21 22 21 21 20 20 30 52 76 93 102 104 103 105 105 101 100 101 99 98 97 97 89 81 81 89 102 106 105 107 105 106 108 106 103 101 101 101 103 102 96 92 76 67 80 88 86 81 70 59 56 53
39 38 37 36 36 36 36 36 36 36 36 37 38 40 41 42 43 44 45 46 45 44 42 40 39 41 43 46 47 47 49 50 50 46 40 32 25 21 22 22 22 21 21 29 45 65 87 102 103 103 104 101 101 100 98 99 96 93 87 79 81 90 102 107 106 108 106 105 106 106 104 99 101 103 101 102 99 94 84 66 61 68 74 73 64 53 51 52
39 40 41 43 45 46 47 47 46 45 43 42 41 40 40 41 41 42 43 44 44 44 43 42 40 38 38 40 42 42 44 47 50 50 49 45 37 27 23 22 23 22 21 22 26 36 56 82 99 103 101 99 100 98 97 99 96 94 89 78 83 97 99 103 108 107 104 104 104 105 105 100 100 104 101 101 102 99 91 74 62 58 59 63 61 53 49 51
46 49 51 53 54 54 54 53 53 51 50 48 47 45 43 42 42 41 41 42 42 43 43 43 41 40 39 38 38 38 40 41 43 48 51 51 47 40 31 25 23 23 23 22 21 24 31 51 79 98 102 98 96 97 94 92 96 97 89 85 95 101 94 101 111 106 104 104 103 104 104 102 100 101 102 100 100 102 98 81 67 60 54 53 54 54 53 52
53 54 54 54 53 51 49 47 46 44 44 43 43 43 42 42 41 40 40 40 41 41 42 42 42 42 41 40 38 37 38 38 37 40 46 48 50 48 42 35 28 24 23 23 22 22 22 30 50 71 88 93 92 95 92 90 96 93 88 99 106 97 95 107 111 105 107 105 103 105 102 102 101 100 103 103 101 100 102 91 70 58 53 49 49 50 51 50
52 51 50 50 48 46 44 41 40 38 38 37 37 37 37 38 38 38 38 38 39 39 40 40 42 43 43 41 40 38 38 38 36 36 37 41 47 49 48 45 39 32 24 23 24 23 23 23 29 40 58 77 84 92 97 94 97 94 94 107 104 95 103 110 108 107 108 106 104 104 102 103 104 101 100 103 105 101 101 101 85 67 56 48 46 43 42 43
49 48 47 46 44 42 40 38 36 35 35 34 34 34 34 35 35 36 37 37 38 38 38 38 40 41 43 43 41 40 39 38 37 36 36 36 41 45 49 49 47 42 32 26 23 24 25 22 23 24 36 55 67 85 97 97 98 97 98 106 100 96 108 107 105 111 107 104 107 106 103 104 104 101 100 102 105 104 102 103 100 88 71 57 50 44 40 39
46 46 44 43 40 38 36 34 33 32 31 31 32 32 33 34 35 37 37 38 38 38 39 39 40 40 41 42 43 43 41 40 38 38 39 37 37 39 45 48 49 49 43 35 27 25 25 24 25 21 26 34 49 75 85 89 97 96 96 103 100 98 107 105 104 110 105 103 106 105 105 102 99 95 99 103 101 104 105 103 103 101 91 75 62 56 50 47
46 46 44 41 37 35 33 31 30 28 26 25 24 24 25 27 30 33 36 38 39 40 41 40 41 41 41 42 42 44 43 42 40 41 42 41 39 37 41 45 48 49 49 45 36 31 25 24 26 24 24 22 34 57 65 77 90 93 99 102 103 104 108 107 104 106 103 102 103 103 105 102 100 93 90 98 102 105 105 104 105 103 101 90 75 67 61 56
48 46 42 38 35 33 30 27 22 18 15 13 13 12 13 14 16 19 23 29 34 38 41 43 44 43 43 43 43 45 43 42 43 43 43 45 44 41 40 42 46 48 49 50 45 41 33 26 26 25 26 22 24 36 51 73 79 87 100 98 102 107 106 110 108 107 105 102 101 101 103 102 104 99 87 89 95 99 101 104 106 105 105 101 90 77 69 62
48 44 40 35 32 30 24 18 12 9 9 8 9 9 9 9 9 10 11 14 18 25 32 38 43 45 46 44 44 45 42 42 45 45 44 46 48 47 46 43 44 46 47 48 48 49 43 34 27 24 27 25 23 25 36 58 66 81 98 93 100 107 104 110 110 108 107 103 101 101 103 101 101 100 92 88 90 92 98 100 100 101 102 103 97 87 78 68
46 41 36 33 30 25 16 11 9 9 9 9 10 10 10 10 10 10 9 9 10 12 16 22 31 39 45 47 46 43 42 44 46 46 46 48 50 50 51 49 46 45 46 47 47 50 50 44 34 27 26 24 26 25 24 38 52 75 97 93 95 106 104 104 107 108 108 105 103 102 98 94 95 100 96 92 97 99 99 101 97 93 92 93 92 87 82 74
44 38 33 31 27 19 12 10 10 11 12 12 13 13 13 12 12 12 12 11 10 10 10 11 15 22 32 44 46 42 43 46 46 47 47 48 51 52 52 54 52 47 45 46 46 48 51 51 45 34 26 23 26 26 22 28 38 59 94 103 94 98 98 99 105 105 108 107 103 104 94 87 96 105 102 98 106 107 100 102 100 93 87 86 87 86 85 82
41 34 30 29 25 16 11 12 13 15 16 17 17 16 14 13 13 13 13 13 12 12 11 9 9 10 15 26 33 37 43 47 47 47 47 48 50 52 53 55 57 54 48 46 46 47 49 52 52 43 33 26 23 24 25 27 27 37 72 98 92 85 87 101 109 104 109 106 102 107 94 91 101 100 100 100 105 108 103 103 101 97 93 87 87 85 83 82
39 32 28 28 23 14 11 13 15 17 19 20 20 18 16 14 12 11 11 11 12 12 12 11 10 9 9 12 16 22 33 43 47 46 46 48 49 52 54 56 59 59 55 49 46 46 48 51 54 51 42 33 25 24 28 27 26 25 38 63 71 73 85 102 107 105 110 104 105 108 93 99 106 93 99 105 103 107 106 104 103 100 95 88 85 83 80 78
39 31 27 27 21 14 12 13 15 17 18 19 18 17 14 13 11 10 8 8 8 9 10 11 10 9 9 9 9 10 17 28 37 42 45 47 50 52 54 57 59 61 60 54 50 47 48 50 52 53 48 40 31 26 26 25 27 23 21 32 44 64 88 97 98 106 110 104 106 105 95 104 101 88 104 110 103 106 103 103 104 98 91 86 84 85 82 80
40 31 27 26 21 13 11 12 14 15 15 16 15 13 11 9 8 7 7 6 5 6 7 8 9 9 9 9 8 8 9 13 19 30 41 45 49 52 54 58 59 62 62 58 54 49 48 49 50 52 51 47 40 32 25 22 23 22 19 22 28 48 78 89 93 107 110 104 105 102 101 101 89 91 110 108 102 106 104 103 101 94 88 84 85 89 88 88
41 32 27 26 22 14 11 12 13 13 13 12 12 10 8 6 5 5 5 4 4 4 4 5 6 7 8 8 9 8 7 8 9 15 27 38 46 50 54 58 59 61 62 61 58 53 49 49 48 50 52 51 46 37 26 20 21 24 23 23 24 31 52 70 87 106 108 104 106 104 102 95 83 94 112 107 101 105 106 104 100 97 93 88 83 85 89 90
43 33 27 25 23 16 12 13 13 13 12 10 9 7 6 5 4 4 4 3 3 3 3 3 4 5 5 7 7 7 7 7 7 8 13 24 37 46 53 57 60 62 63 62 61 57 52 49 48 48 47 47 45 40 34 29 25 26 26 26 27 26 33 46 69 101 109 103 106 105 103 97 86 96 111 109 103 102 102 100 99 98 94 87 80 76 81 82
44 34 27 25 23 16 13 14 14 13 11 9 7 5 4 4 3 3 3 3 3 3 3 3 3 3 3 4 5 6 7 6 7 7 7 12 22 35 48 55 60 63 64 64 63 62 57 52 49 46 45 47 50 50 48 42 31 25 26 27 28 26 27 31 45 81 108 107 105 103 104 103 93 99 110 105 97 94 94 95 96 94 89 85 81 76 77 76
46 36 27 24 22 17 13 14 15 13 10 7 6 5 4 4 3 3 3 3 3 2 3 3 2 3 3 3 3 4 6 6 6 6 7 8 11 21 34 47 58 64 66 66 65 65 61 56 51 49 51 56 59 60 58 51 38 30 29 29 31 29 28 29 28 50 87 103 104 102 103 105 98 99 108 103 97 95 95 98 101 97 91 88 84 80 79 79
48 37 28 23 22 18 13 14 16 13 9 6 4 4 4 4 3 3 3 3 3 3 3 3 2 3 3 2 3 3 4 5 6 6 6 7 8 11 18 33 50 62 68 69 66 65 62 58 56 55 57 60 62 63 60 54 46 39 36 33 34 33 30 31 27 30 53 80 98 101 101 103 98 97 105 107 104 101 97 98 102 100 96 92 87 84 83 85
50 39 29 24 22 19 14 14 16 13 8 5 4 4 4 4 4 3 3 3 3 3 3 3 3 2 3 2 2 3 3 4 5 5 5 6 8 8 10 19 36 55 66 67 65 64 64 64 63 61 59 59 61 62 58 55 53 49 45 39 34 33 30 30 30 29 34 51 72 89 101 103 96 95 99 102 104 101 94 92 94 97 99 96 86 81 83 83
53 41 31 25 24 20 15 13 15 12 8 5 4 4 4 4 4 3 3 3 3 2 2 2 3 3 2 2 2 2 3 3 3 4 5 6 7 8 8 10 21 40 55 61 65 68 69 71 70 66 62 59 62 66 64 61 62 58 49 43 36 31 31 31 31 32 32 36 43 64 89 95 89 93 95 97 103 102 97 95 94 97 101 96 86 84 84 77
56 44 32 26 24 21 15 13 13 11 7 5 5 4 4 4 4 4 3 3 3 3 2 2 3 3 3 2 2 2 3 3 3 3 4 6 7 7 8 8 12 24 39 54 67 73 72 74 75 71 68 67 68 72 72 67 67 64 54 48 42 33 31 32 32 34 34 33 30 39 57 67 76 91 96 96 101 103 102 101 99 99 98 94 91 91 84 75
58 46 33 26 24 21 15 12 12 10 6 5 5 4 4 4 4 4 3 3 3 3 2 3 3 3 3 3 2 2 3 3 3 3 3 5 6 6 7 8 9 13 26 46 65 73 73 74 77 76 77 80 79 77 77 73 70 70 64 55 48 41 37 33 31 35 36 33 31 30 33 41 56 77 91 98 101 102 103 103 102 101 98 97 100 97 87 85
60 49 35 27 25 22 16 12 12 9 6 5 5 4 4 4 4 4 4 3 3 3 3 3 3 2 3 3 2 2 3 2 2 2 3 4 6 6 7 8 8 10 16 33 54 67 69 75 80 80 81 84 83 82 83 82 78 77 74 66 57 51 44 35 31 36 37 33 32 31 28 27 34 49 68 88 97 95 95 99 103 103 99 101 103 100 97 98
61 52 38 28 25 23 17 13 12 10 7 5 4 4 4 4 4 3 3 3 3 3 3 3 2 2 2 3 3 2 3 2 2 2 3 4 5 6 6 8 9 9 11 20 39 55 65 79 88 87 88 85 83 87 89 90 86 80 81 78 66 58 52 42 35 36 37 34 33 32 29 24 24 29 41 62 78 82 86 93 102 104 101 103 105 103 102 104
62 55 42 29 24 23 17 13 12 11 7 5 5 4 4 4 4 4 3 3 3 3 3 3 2 3 2 2 3 2 3 2 2 3 3 3 4 6 6 7 8 10 10 13 28 47 67 87 94 92 95 93 92 94 90 93 90 78 85 93 78 65 63 53 41 36 34 34 33 32 29 25 24 24 26 37 50 64 79 91 102 105 104 105 105 103 103 104
62 57 43 30 24 23 18 13 13 12 8 5 5 4 4 4 3 4 3 3 3 3 3 3 2 3 2 2 2 2 3 2 2 3 3 3 4 5 6 7 8 9 9 11 20 36 62 89 99 98 98 98 100 100 94 98 92 77 88 102 89 72 69 63 50 39 33 32 33 31 30 28 25 25 25 26 30 43 61 78 96 105 107 107 104 102 105 105
62 57 45 31 25 23 18 14 13 13 8 5 6 5 4 4 4 4 3 3 3 3 3 3 2 3 2 3 3 2 3 2 2 3 3 4 4 5 7 7 8 9 9 11 13 21 48 80 99 102 102 101 102 102 104 107 96 83 92 104 94 76 68 65 56 41 32 31 32 32 32 29 25 26 28 27 26 29 37 50 68 83 97 103 98 98 102 103
62 57 46 32 24 22 19 15 13 13 9 5 6 5 4 4 4 4 3 3 3 3 3 3 2 3 2 3 3 2 3 2 3 3 3 4 4 6 7 7 8 9 9 10 10 16 38 70 93 102 105 106 106 106 110 109 97 91 94 96 92 79 64 59 52 41 34 30 29 31 31 29 27 29 31 29 28 28 29 33 40 51 66 76 78 84 90 94
64 57 47 33 25 23 20 15 13 13 10 7 6 5 4 4 4 4 3 3 3 3 3 3 2 3 2 3 3 3 3 3 3 3 3 4 5 6 7 8 8 9 10 10 10 15 30 58 87 101 106 109 109 109 109 105 98 96 93 86 85 77 62 54 47 42 39 32 30 31 30 30 31 31 32 32 32 34 33 31 31 32 38 43 51 61 69 76
66 59 48 35 26 23 20 16 14 13 11 8 7 5 4 4 4 4 3 3 3 3 3 3 3 3 3 3 3 3 3 3 3 3 4 4 5 6 7 8 8 9 11 11 12 15 25 51 82 99 105 109 108 108 108 106 104 105 101 93 89 82 69 60 54 53 51 39 32 31 29 31 32 29 30 33 34 36 35 33 30 28 27 27 30 35 42 53
67 61 51 38 28 22 20 17 14 13 11 8 7 6 4 4 4 3 3 3 3 3 3 3 3 3 3 3 3 3 3 3 4 3 4 4 6 7 7 8 9 10 11 11 13 14 23 55 89 104 107 107 107 108 107 108 109 109 108 101 96 90 80 70 63 64 63 49 40 37 33 32 32 29 32 37 36 35 36 35 32 30 28 27 25 26 28 35
67 63 54 42 29 22 20 18 14 12 10 8 8 7 5 4 4 3 3 3 3 3 3 3 3 2 3 3 3 3 3 4 4 4 4 5 6 7 8 8 9 10 12 12 14 14 23 57 92 106 107 104 104 105 104 105 106 104 104 98 96 98 90 76 66 64 64 56 52 51 42 37 35 32 38 43 39 35 35 34 33 32 30 28 27 27 27 29
67 64 57 45 32 24 21 19 15 12 11 8 8 8 5 4 4 3 3 3 3 3 3 3 3 3 3 3 3 4 4 4 5 5 5 6 7 7 8 9 9 10 12 12 14 15 22 52 86 103 107 106 104 103 103 106 106 104 103 98 97 97 90 79 70 63 62 58 55 54 45 38 35 31 37 44 40 37 35 33 33 33 31 31 31 30 31 34
68 64 57 47 35 26 23 20 16 13 13 10 8 8 5 4 4 3 3 3 3 3 3 3 3 3 3 3 4 4 4 5 5 5 6 7 8 8 8 10 10 11 13 12 14 15 19 48 89 106 105 104 104 103 104 106 105 103 104 103 100 93 87 84 76 65 64 59 54 55 50 41 35 32 37 45 43 39 37 34 33 31 31 33 33 34 37 40
69 64 57 49 38 28 23 21 18 15 14 11 9 8 6 4 4 4 3 4 3 3 3 3 3 3 3 4 5 5 5 5 6 6 7 8 8 9 9 11 12 12 14 14 16 16 19 49 92 107 103 103 104 104 103 101 101 102 104 106 103 95 92 91 80 69 67 64 62 67 62 50 44 41 43 48 47 43 41 36 33 33 33 33 34 36 39 41
71 65 58 51 41 30 25 23 22 19 15 12 9 8 6 4 4 4 4 4 3 3 3 3 3 3 4 5 5 6 6 6 6 6 8 9 10 11 11 12 13 13 15 15 16 16 22 53 91 102 101 104 102 102 102 100 101 103 102 103 100 94 93 92 84 74 69 67 70 77 76 69 59 50 50 57 54 46 45 42 37 37 36 34 34 35 36 39
71 66 61 54 44 33 27 27 27 21 16 12 10 9 7 5 4 4 4 4 4 3 3 3 4 4 5 6 6 7 7 7 7 8 9 10 10 11 12 13 13 14 16 16 17 17 24 53 85 95 98 103 102 102 103 102 103 102 100 103 102 98 95 92 86 79 71 69 68 73 81 79 65 54 55 64 64 52 47 47 43 41 41 37 35 34 34 37
72 68 64 58 48 39 32 30 30 23 16 13 10 10 9 5 4 4 4 4 4 4 4 4 5 5 6 7 7 7 8 8 8 9 10 11 12 12 13 14 14 16 17 17 18 18 23 47 81 96 100 104 104 102 101 100 102 102 101 102 102 101 100 94 90 84 77 70 62 67 83 80 65 61 61 65 70 62 53 50 46 44 44 41 38 36 34 35
75 70 64 58 52 46 38 33 31 23 16 14 11 10 10 6 4 4 4 5 5 4 5 5 6 7 7 8 9 9 9 10 11 10 10 11 13 14 14 14 15 15 17 18 17 18 23 47 84 102 102 103 104 102 102 102 103 103 102 99 94 94 98 99 98 94 84 73 66 76 93 88 74 73 68 63 70 68 57 49 45 44 44 43 42 40 37 35
78 71 64 58 52 48 43 37 32 25 18 15 12 11 11 8 5 5 5 6 7 6 6 7 7 8 9 9 10 11 11 12 13 14 14 14 14 15 15 16 17 16 17 18 17 18 22 42 80 105 105 104 104 102 103 102 99 98 98 95 91 88 90 92 92 91 87 81 78 86 101 102 94 89 78 68 69 69 60 50 44 44 42 41 44 45 42 37
80 74 67 61 54 50 46 39 33 28 21 17 14 12 12 10 6 5 6 7 10 10 8 9 10 10 11 11 11 13 14 15 16 17 17 17 17 17 17 18 18 18 19 19 18 19 21 37 73 102 106 104 103 102 101 97 96 98 96 94 92 89 87 87 87 90 91 86 80 87 103 109 103 96 85 76 73 71 65 57 51 48 44 42 46 49 47 43
81 76 71 65 56 49 45 38 32 30 24 19 16 13 12 12 8 5 7 9 13 14 12 11 12 11 11 12 12 14 16 17 18 18 18 18 18 19 19 20 20 19 19 19 18 18 21 35 65 93 103 103 102 102 102 101 103 105 101 97 97 95 95 95 96 98 98 90 80 86 102 108 101 94 87 81 79 76 69 63 60 54 48 45 47 49 49 48
82 78 74 68 57 47 43 37 32 30 27 21 19 16 13 13 11 7 8 11 15 20 18 14 14 13 12 12 13 14 16 17 18 17 17 18 18 19 19 19 20 20 19 19 18 19 23 34 57 83 98 100 98 97 101 107 109 108 105 103 103 103 102 101 102 104 103 97 88 87 97 103 99 95 90 83 80 80 75 69 66 61 55 50 49 48 48 51
84 80 76 70 60 49 44 39 32 31 31 24 19 18 15 14 14 9 8 12 16 21 23 21 17 15 14 13 13 14 16 17 17 17 17 16 16 18 19 19 20 21 20 20 19 20 26 37 55 77 93 98 99 99 100 103 103 102 104 105 104 106 106 103 105 107 104 102 99 93 96 101 99 94 88 80 77 79 78 73 71 69 64 57 53 50 51 55
85 79 76 72 64 51 43 40 35 32 33 29 22 20 18 15 15 13 10 12 16 19 22 26 25 20 16 14 14 15 15 17 18 17 16 15 16 17 18 19 21 21 21 21 20 22 29 40 55 74 89 97 101 104 103 101 100 100 101 102 102 104 104 103 105 106 105 106 104 100 100 104 103 94 83 77 74 74 74 74 76 79 75 65 57 54 53 56
87 82 78 74 67 54 44 41 37 32 33 34 28 22 20 17 16 16 13 11 16 20 20 25 29 27 22 17 15 16 17 17 18 18 16 15 15 16 18 20 21 21 22 21 22 24 30 41 55 70 88 98 100 103 104 102 102 103 102 102 102 103 102 102 102 103 105 106 104 103 106 108 108 101 89 82 78 75 73 74 80 90 89 76 65 60 57 59
90 84 81 78 70 59 49 44 41 34 32 36 34 26 23 20 17 17 17 14 15 20 22 22 25 28 28 23 19 17 18 19 20 19 18 16 16 16 18 20 21 22 22 22 24 27 31 40 52 68 90 102 103 104 104 102 103 104 104 104 104 103 103 103 103 102 103 104 103 105 107 106 107 105 96 89 85 81 78 76 80 94 101 89 74 67 64 63
92 86 82 80 73 63 53 47 45 40 34 36 39 32 26 24 20 16 19 19 16 19 23 22 21 24 29 30 26 23 22 22 21 21 20 17 17 18 18 20 21 22 22 22 26 30 35 46 59 76 96 106 103 103 104 103 104 104 103 103 103 104 105 105 105 105 105 104 104 104 105 105 106 104 98 92 90 89 86 80 80 93 104 99 85 74 69 64
Wind_Speed
49 50 52 54 56 57 59 61 62 63 64 65 66 67 68 69 70 71 71 71 71 70 69 68 67 67 67 66 66 66 65 65 65 68 70 72 74 75 77 79 80 79 80 81 81 81 80 79 78 77 77 75 74 72 72 72 72 72 70 68 65 64 64 64 64 65 65 66 67 66 63 60 57 55 52 53 59 62 62 60 55 53 51 50 49 48 47 47
51 53 56 58 60 63 64 66 67 69 69 70 71 71 72 73 74 75 75 76 76 75 74 73 72 71 71 71 71 70 68 67 67 67 69 71 74 74 75 77 79 80 81 81 82 83 83 82 81 80 80 78 75 74 73 72 72 71 69 68 65 64 64 63 64 66 67 67 68 66 64 62 60 57 55 52 54 60 64 64 62 59 58 56 55 53 52 50
54 57 60 63 65 67 69 71 73 74 75 76 76 77 77 77 78 78 79 80 80 80 79 78 77 76 75 75 75 73 72 71 70 69 69 71 73 74 75 77 78 80 81 82 83 83 83 84 83 83 82 80 78 76 74 72 71 69 69 67 64 65 66 64 65 67 68 68 68 67 65 64 62 60 59 57 55 58 63 65 65 63 61 60 58 57 55 54
57 60 63 66 69 71 74 76 78 80 81 82 83 83 84 84 84 84 84 84 84 84 83 83 82 81 80 80 79 77 76 75 74 73 72 73 73 73 75 77 79 79 81 82 84 84 83 84 85 85 85 83 80 78 76 73 70 70 68 65 65 67 66 65 67 68 68 69 69 68 66 65 65 63 62 61 60 60 62 65 66 65 63 62 60 59 57 56
60 63 66 70 73 76 78 80 82 84 85 87 88 89 90 91 91 90 90 89 89 88 87 87 87 86 86 85 83 81 80 80 77 76 76 76 74 74 75 77 79 80 81 82 83 84 84 84 85 86 86 85 83 80 77 74 72 71 67 65 67 68 66 68 69 69 69 69 69 69 68 66 65 65 64 63 63 62 62 66 67 65 64 63 61 60 59 58
62 65 69 72 76 79 82 84 86 88 89 91 92 93 94 95 96 96 96 95 94 93 93 92 91 91 91 90 88 86 85 85 81 80 80 78 77 76 76 77 79 81 81 81 82 83 84 85 86 86 85 85 84 82 79 77 76 72 68 68 69 67 67 70 70 69 70 69 69 69 70 68 66 65 65 65 64 63 63 64 65 66 65 63 63 62 61 60
63 66 70 74 78 81 84 87 89 90 92 93 94 96 96 97 98 99 100 100 100 99 98 97 96 96 96 95 93 91 90 90 87 85 84 81 80 79 78 78 79 81 82 82 82 83 84 85 86 86 85 85 84 82 82 81 79 75 71 70 69 68 69 71 70 71 70 69 69 70 70 70 68 67 66 66 65 64 64 63 62 64 65 65 64 63 62 62
64 67 71 75 78 81 83 85 87 89 90 92 93 95 97 98 100 101 102 103 103 103 103 102 101 101 100 99 97 96 95 95 92 89 88 86 83 81 81 81 80 81 82 82 83 84 84 84 85 86 87 86 83 83 85 84 82 79 74 72 71 69 71 72 71 71 70 70 70 69 70 70 69 68 66 66 66 66 67 65 63 62 64 65 65 64 63 62
65 69 72 75 77 78 80 81 82 83 85 86 88 90 92 95 98 100 102 104 105 106 106 106 106 105 105 103 102 101 100 99 96 94 92 90 88 85 83 83 83 83 82 82 83 84 85 84 84 86 87 87 84 84 85 84 83 81 77 75 73 72 73 73 72 72 71 71 70 69 69 69 70 69 67 65 65 67 68 68 66 63 63 64 65 64 64 63
66 69 71 73 73 74 74 75 75 75 76 77 78 80 83 86 90 94 98 101 104 106 108 109 109 109 109 108 106 106 105 103 101 98 96 95 92 90 87 86 86 85 84 83 83 84 86 85 86 87 86 87 86 86 84 83 83 81 80 78 75 76 76 74 73 73 72 71 69 69 70 69 70 69 66 64 65 66 68 69 68 66 65 64 64 64 64 63
65 67 69 69 69 69 68 68 67 66 66 66 68 70 72 76 79 83 88 92 97 102 106 109 111 112 112 111 110 111 109 107 105 103 100 98 97 94 92 90 89 88 87 85 84 85 86 87 88 86 86 87 86 87 86 84 83 80 80 81 79 79 78 76 75 73 72 71 69 70 70 70 69 67 63 63 66 68 68 68 68 68 66 65 65 64 63 62
63 65 65 65 64 64 63 61 58 58 58 59 60 62 65 68 71 74 78 82 87 93 98 104 109 112 114 114 114 114 111 110 109 107 105 102 101 99 96 94 93 91 89 88 86 86 86 87 88 88 88 87 85 88 87 84 83 80 80 82 82 82 80 77 75 73 72 71 70 71 71 68 65 64 64 64 67 69 67 67 67 67 66 64 64 63 63 61
62 62 62 61 61 59 57 54 53 53 54 55 56 58 60 62 65 68 71 75 79 83 89 95 100 106 111 115 118 116 114 114 113 111 108 106 105 103 100 98 97 95 92 90 89 87 87 87 88 90 89 87 87 88 85 84 85 82 81 82 83 84 81 77 75 74 73 72 71 73 71 65 63 65 66 65 67 69 67 66 66 65 64 63 62 62 62 60
61 61 59 58 57 55 52 50 50 50 52 53 55 58 59 60 61 63 66 69 73 76 81 86 91 97 102 110 116 117 117 117 116 113 111 109 108 107 104 102 101 99 96 93 91 90 89 88 89 90 89 89 89 85 83 86 87 85 84 84 83 82 79 76 76 74 74 73 71 74 70 63 66 67 65 64 66 68 66 65 64 63 62 60 60 60 60 58
61 60 58 56 55 52 48 46 47 48 49 51 54 57 59 60 60 60 62 64 68 72 76 79 84 88 93 101 109 114 117 119 118 116 114 112 111 110 108 106 104 103 100 97 94 92 91 90 90 90 90 90 89 86 86 87 87 87 87 85 81 78 75 77 78 75 75 74 73 75 68 65 70 67 64 65 66 66 66 64 63 61 60 59 58 58 58 56
62 60 58 56 54 51 47 44 44 44 45 47 50 54 57 59 60 61 61 60 63 67 71 75 78 82 86 92 100 106 112 117 118 118 117 115 114 112 110 109 108 106 104 101 98 95 94 93 92 91 91 90 89 88 89 87 87 88 86 82 78 75 74 77 77 75 76 76 75 75 68 69 73 66 64 67 66 66 65 63 62 61 60 58 56 56 56 54
63 62 60 58 56 52 48 44 43 42 41 42 45 49 52 54 57 59 60 60 59 61 65 70 73 76 80 85 92 98 104 108 112 116 118 118 116 115 113 112 111 109 107 104 101 99 97 96 94 92 91 89 89 90 91 88 85 83 81 78 77 74 74 76 75 76 78 77 76 74 71 74 73 65 67 69 67 66 65 63 62 61 59 57 55 55 54 53
65 64 61 60 58 54 50 47 45 44 42 40 41 44 47 49 51 54 56 58 58 57 58 62 67 72 75 80 86 92 95 99 104 110 116 119 119 117 116 115 113 112 110 107 105 102 99 98 96 94 92 91 90 90 88 83 78 76 75 75 75 76 76 78 77 76 79 78 77 76 74 76 72 67 69 70 68 67 65 65 63 61 59 57 55 54 53 53
67 66 63 61 60 56 52 50 48 47 45 42 41 42 43 44 46 47 50 53 55 55 54 55 60 65 70 75 81 86 89 92 96 102 109 115 119 119 118 118 116 115 113 110 107 104 102 100 98 96 92 87 84 81 79 77 77 77 76 77 79 80 80 81 78 74 77 78 78 77 74 76 74 69 70 71 70 68 66 65 63 62 60 58 57 55 54 54
70 68 66 63 61 58 54 51 50 49 48 45 43 42 42 42 42 43 45 47 49 50 51 51 54 58 64 70 76 80 83 86 90 95 101 108 115 119 120 120 119 118 116 113 110 107 105 102 99 94 86 80 77 77 79 81 83 82 81 80 81 82 81 82 79 75 78 80 78 76 75 77 76 72 72 73 71 68 66 64 63 62 61 59 58 56 56 55
72 71 68 65 62 60 56 53 53 52 50 47 44 42 41 40 40 40 41 43 43 43 45 48 50 53 59 64 69 72 77 82 85 90 94 100 108 115 119 121 120 119 117 115 113 110 108 104 97 89 83 81 81 84 86 86 84 82 81 79 79 80 80 82 82 78 81 83 79 78 78 78 77 73 73 73 71 68 65 64 63 63 61 60 58 57 56 54
75 73 71 68 65 62 58 55 54 53 51 48 43 40 39 39 38 37 37 39 38 36 38 43 46 50 55 59 63 66 71 76 81 86 88 92 101 109 114 118 121 121 119 119 116 113 108 101 93 88 87 89 89 89 88 85 83 82 81 79 80 81 81 83 82 80 83 84 82 81 79 79 78 75 74 72 69 68 67 65 63 62 60 59 58 57 56 55
78 76 74 71 68 65 61 57 55 54 52 48 43 38 36 36 35 34 34 35 34 30 31 38 43 48 52 56 60 63 66 71 77 80 81 85 94 102 108 113 119 121 122 121 117 112 106 98 93 94 95 94 91 88 86 83 83 83 82 82 82 82 82 81 80 80 82 85 85 82 80 80 79 76 74 71 69 69 68 65 63 62 60 60 60 58 56 56
80 79 76 73 70 67 63 58 55 53 51 48 44 40 35 33 33 32 31 31 31 28 28 33 38 45 51 53 55 57 61 66 72 74 75 81 89 96 102 107 114 120 122 120 116 112 107 101 100 101 98 93 89 87 85 84 85 84 85 84 83 82 82 81 81 81 82 86 87 84 84 83 78 75 74 71 69 68 67 65 63 62 61 61 60 58 58 57
83 81 78 75 72 69 64 59 56 53 50 47 45 41 37 34 31 30 29 29 29 28 27 29 33 40 47 49 49 50 54 62 68 69 70 77 85 91 97 102 109 116 119 118 117 114 110 106 105 102 97 92 90 89 87 86 86 85 85 84 83 82 81 81 81 81 83 86 86 86 87 83 77 75 74 71 70 68 66 64 62 62 62 61 59 59 60 58
85 83 80 77 74 71 67 62 57 53 49 46 44 41 38 35 32 29 28 27 27 27 27 28 29 34 40 44 43 43 49 58 62 63 66 73 80 86 91 96 103 110 114 117 118 117 113 109 106 102 98 96 94 92 89 87 86 85 84 83 83 82 80 82 81 81 83 84 84 86 86 82 79 76 73 70 70 69 66 63 62 62 61 60 60 61 59 57
87 85 83 79 76 73 69 64 60 56 52 47 44 41 39 36 32 30 27 26 25 25 25 26 27 29 34 38 39 39 46 53 56 58 63 69 76 81 86 91 97 104 110 116 118 117 114 109 106 103 101 100 97 93 89 87 87 86 84 83 83 82 81 82 81 81 84 84 84 84 84 83 79 76 74 72 71 70 67 63 62 61 60 60 62 61 58 56
89 88 85 81 78 74 71 66 62 59 55 50 45 42 39 36 32 29 27 25 23 23 23 23 24 26 28 32 35 36 42 49 51 52 58 65 72 77 81 87 93 100 107 112 115 115 112 108 106 104 102 100 96 93 90 89 89 88 85 83 84 83 82 82 82 83 84 85 83 82 83 82 77 75 75 73 71 69 65 63 62 62 62 62 63 61 58 56
90 89 86 83 79 76 72 67 64 61 56 51 47 44 40 36 33 29 26 24 23 21 21 21 21 22 24 27 30 34 39 45 47 50 56 62 67 72 78 83 90 97 102 107 111 113 111 110 109 107 104 101 97 95 93 91 91 90 85 84 84 84 83 83 83 84 85 84 80 79 80 78 75 75 74 73 70 66 64 65 65 64 64 65 64 61 58 57
91 90 88 84 80 77 73 68 65 62 57 51 48 45 41 37 33 29 26 23 22 20 19 19 19 19 21 24 27 31 37 41 44 48 54 59 64 69 75 81 87 93 97 103 109 112 112 112 111 108 106 102 99 97 93 92 93 90 86 85 86 85 84 84 84 84 84 81 76 76 77 76 75 73 72 70 68 67 68 69 68 67 66 65 64 61 59 58
92 91 89 85 81 78 75 70 67 64 58 52 48 45 41 37 33 29 26 23 21 19 18 17 16 17 19 22 26 30 34 38 41 46 51 56 61 66 72 78 83 88 94 100 106 109 110 112 111 109 106 103 100 97 93 94 94 90 87 88 88 86 86 85 85 84 82 77 75 77 77 76 73 69 68 68 67 69 72 71 71 70 69 68 66 63 61 60
93 92 90 86 83 79 76 72 68 64 60 54 50 46 41 37 34 30 26 23 20 18 16 15 15 16 17 20 24 28 32 35 38 43 48 53 59 64 70 75 80 84 90 95 100 103 107 110 110 108 106 102 100 97 96 97 94 90 90 91 89 87 86 86 85 82 78 76 77 78 77 74 69 65 65 66 66 68 70 71 72 72 71 71 68 65 63 61
94 93 91 88 85 81 77 73 69 65 61 56 52 47 42 37 34 30 26 23 20 17 15 13 13 14 16 18 21 25 28 32 36 40 46 52 58 63 69 73 77 81 86 91 94 99 105 108 108 107 105 102 100 98 98 96 91 89 90 89 86 85 84 82 81 78 76 77 77 76 74 71 67 64 63 64 64 66 68 69 71 71 72 71 69 67 64 62
95 94 92 89 86 82 78 74 70 66 62 57 53 49 44 39 34 29 26 22 19 16 14 12 12 13 14 16 18 21 25 29 34 38 43 49 55 61 66 70 74 77 83 88 93 98 103 105 106 105 103 102 100 98 96 93 89 88 88 87 86 84 81 79 78 77 77 78 76 75 73 69 66 64 61 62 64 65 66 67 68 69 69 69 68 66 64 62
95 95 94 91 87 83 79 75 71 66 61 57 53 50 46 40 34 29 25 22 18 15 13 11 10 11 12 14 16 18 23 27 32 36 41 47 52 57 62 66 71 75 80 85 90 96 100 103 104 105 103 101 100 98 97 94 91 91 91 90 87 84 81 80 80 78 78 77 73 71 70 67 65 62 58 61 64 63 64 65 65 66 67 67 66 64 63 62
95 95 94 92 88 84 80 77 72 67 61 57 55 52 46 40 34 28 25 22 18 14 12 9 8 9 10 12 15 18 22 26 30 34 40 45 50 55 60 64 68 72 78 83 88 93 98 101 104 104 102 101 99 98 97 94 93 93 92 89 86 84 83 82 80 78 77 75 70 68 68 65 63 61 58 61 64 63 63 64 63 64 65 64 63 61 61 60
95 95 94 92 89 85 82 79 74 69 65 61 57 51 45 39 33 27 24 21 18 14 11 8 7 7 9 11 14 18 22 25 29 33 38 43 47 52 56 61 65 69 75 80 86 92 96 100 102 101 101 101 100 98 97 96 95 93 90 88 87 87 84 80 78 77 76 74 71 69 67 65 64 62 60 61 63 63 63 63 63 63 63 61 60 59 57 58
95 94 94 92 90 86 83 79 75 71 68 63 57 51 44 39 33 28 25 21 18 14 11 7 5 6 8 11 14 18 22 25 29 33 37 42 45 49 53 58 62 66 71 77 83 89 93 98 101 101 101 101 101 99 98 98 96 92 90 90 89 86 82 79 77 75 74 73 70 67 67 65 64 61 59 60 62 62 63 63 63 62 61 59 59 57 56 57
95 94 94 93 90 87 83 80 77 74 69 63 56 50 45 39 33 28 25 22 19 15 11 7 3 5 8 12 14 17 21 24 28 33 37 40 43 47 52 55 59 63 68 74 80 86 91 96 100 101 102 102 102 100 99 97 94 91 91 90 86 83 81 79 77 73 71 70 68 66 65 63 61 59 58 58 60 61 62 63 63 61 61 59 58 57 57 57
94 94 94 93 91 87 84 81 79 75 69 63 57 51 46 39 33 28 26 23 20 15 10 6 1 4 8 11 14 16 20 23 27 32 36 39 43 46 50 53 57 61 66 72 78 84 89 94 99 101 102 101 100 98 96 94 91 90 88 85 83 82 80 77 74 71 69 68 67 65 63 60 60 59 57 56 59 60 60 61 62 61 61 60 58 57 57 56
94 94 94 93 91 88 84 82 79 74 68 63 57 51 47 40 34 28 26 24 20 15 10 6 2 4 8 12 14 17 20 23 26 30 34 38 42 45 48 51 55 59 65 70 76 82 87 93 97 99 99 99 98 96 94 92 90 88 86 83 82 81 78 75 73 69 68 68 67 64 62 61 61 58 56 56 59 60 59 59 60 60 60 60 59 58 57 57
94 94 93 92 91 88 85 82 79 73 67 62 57 52 47 41 34 28 27 26 21 15 10 7 5 6 8 12 14 17 19 22 25 29 33 36 39 43 46 49 53 58 64 70 75 80 85 91 94 96 97 97 97 95 94 92 90 88 86 84 83 80 76 73 71 69 69 68 66 63 62 62 60 57 57 58 59 61 60 59 59 59 59 59 59 58 58 58
93 93 92 91 90 88 85 82 77 72 66 62 57 52 47 42 35 29 28 28 23 16 12 9 9 9 10 13 14 17 20 22 23 26 30 33 37 40 43 47 51 57 63 68 73 78 83 88 92 95 96 96 95 95 94 92 90 88 85 84 82 79 76 74 73 72 70 65 62 61 62 62 60 58 59 59 60 62 62 61 60 59 59 59 59 59 59 59
92 93 92 91 89 86 84 81 77 72 67 62 57 52 48 43 36 30 28 29 26 20 15 12 11 11 12 14 16 17 19 22 23 25 28 31 35 38 41 45 50 55 61 66 71 75 81 86 90 93 94 94 94 94 93 90 87 84 83 82 81 80 79 77 75 71 67 63 62 63 63 61 59 59 59 59 60 62 63 62 61 60 60 59 58 59 60 59
92 92 92 91 88 85 83 80 77 72 67 63 58 53 48 43 37 30 28 30 29 24 18 15 13 11 12 14 16 19 20 22 24 26 28 30 33 36 40 45 50 56 61 66 70 74 78 83 87 91 91 90 90 88 87 86 84 83 83 82 81 79 76 74 71 68 65 64 63 63 62 61 61 61 59 59 60 62 63 63 62 61 59 58 58 60 60 59
91 91 91 90 88 84 82 79 76 72 66 62 58 53 48 43 37 31 27 29 30 27 21 17 14 11 10 13 16 18 21 23 25 26 28 29 32 36 40 45 50 55 60 64 67 71 74 79 84 87 89 89 89 87 85 84 82 81 80 78 77 75 72 70 68 64 63 63 62 62 62 63 64 62 60 59 60 61 62 62 62 61 59 58 58 60 60 59
90 91 91 90 87 84 81 78 75 71 66 61 57 53 48 43 37 31 27 27 28 27 24 19 15 10 8 10 14 16 18 21 23 25 27 29 32 35 40 44 48 53 57 60 64 66 70 76 80 84 87 89 89 88 86 83 80 78 77 75 74 72 70 68 65 62 63 62 60 61 63 64 64 62 61 61 60 61 61 61 61 60 58 57 58 59 59 59
90 90 90 89 87 84 80 78 75 71 66 61 56 53 48 43 37 31 27 26 25 24 23 21 17 12 7 7 10 14 16 18 20 22 25 28 31 35 39 44 47 51 54 58 60 63 67 72 77 81 84 85 85 84 83 82 81 80 78 77 74 72 68 65 62 62 62 60 59 61 62 63 64 63 62 62 61 60 60 60 60 59 58 58 57 57 57 58
89 90 90 89 87 84 80 77 74 71 66 61 56 53 48 42 37 32 27 25 24 22 21 20 18 14 9 4 7 11 14 16 17 19 22 26 30 34 38 42 46 50 53 55 57 60 64 69 73 77 80 82 83 83 81 80 79 78 77 75 74 71 69 66 64 62 61 60 60 60 59 61 63 63 62 61 60 61 60 59 59 59 58 58 57 57 57 58
89 90 90 89 87 84 80 76 74 70 66 61 56 52 48 43 37 32 27 23 22 21 19 17 17 15 11 5 3 7 11 13 14 16 19 22 27 32 36 41 45 49 51 54 56 58 62 66 69 73 76 78 80 80 80 79 78 77 76 74 72 70 68 66 65 63 61 60 60 58 57 60 62 61 60 59 60 60 60 59 59 58 58 59 58 57 57 59
88 89 89 88 86 83 79 76 73 70 66 61 56 51 48 43 37 32 28 24 21 20 18 16 15 14 12 9 3 4 8 10 12 14 17 20 24 30 36 40 44 47 50 53 54 56 59 62 65 68 72 75 77 78 79 79 78 78 75 73 70 67 64 63 63 62 60 59 59 58 57 60 62 61 59 59 59 60 60 60 59 59 59 59 58 57 58 60
88 89 89 88 86 82 79 75 72 69 66 61 56 51 47 43 38 33 28 24 21 19 17 15 13 13 12 9 5 3 4 7 10 12 15 19 24 29 34 39 43 46 49 51 53 55 56 58 60 64 67 71 73 75 76 77 76 74 71 69 68 65 63 62 60 59 58 58 58 56 57 61 63 61 59 59 59 59 59 59 59 59 59 59 59 59 59 60
Wind_Direction
274 274 274 274 274 273 273 272 271 270 269 268 266 265 263 261 260 258 256 255 253 252 250 248 246 245 244 243 242 241 241 240 239 238 237 237 236 235 234 235 234 234 234 234 234 233 233 233 233 233 232 232 232 232 232 231 231 232 232 231 231 232 233 234 236 236 236 237 239 239 238 236 236 235 236 239 239 237 238 238 238 239 242 245 248 250 251 254
278 278 279 279 278 278 277 276 274 273 271 269 268 266 264 262 261 259 257 256 254 253 252 250 247 245 244 243 242 241 240 240 239 239 238 238 237 235 235 235 234 233 233 233 233 233 232 233 233 233 233 232 232 231 231 231 231 232 232 231 230 231 232 232 234 235 235 235 237 238 238 236 235 234 232 234 238 238 238 240 240 240 241 244 247 249 250 252
283 283 283 283 282 281 280 279 277 276 274 273 271 269 266 264 262 260 258 256 255 254 252 251 250 248 245 244 242 241 240 239 239 238 238 238 237 236 235 235 234 233 233 233 233 233 233 232 233 233 233 232 232 232 231 231 231 231 231 231 230 231 231 231 233 234 235 235 236 237 237 236 234 233 231 230 234 239 239 240 241 241 242 245 247 250 251 252
286 286 285 284 282 281 279 278 277 275 274 273 272 271 269 267 264 262 260 258 256 254 253 252 251 249 247 246 244 242 241 240 238 238 237 237 237 236 235 235 234 234 233 233 233 233 232 232 232 233 233 233 232 232 231 231 231 231 231 230 229 230 230 231 232 233 234 235 235 235 235 236 235 233 231 230 232 237 240 240 241 242 243 245 247 249 251 252
288 287 286 284 282 281 279 277 276 275 273 272 271 269 268 267 265 263 261 259 257 255 253 252 250 249 248 247 245 243 242 241 239 238 237 236 236 236 235 235 234 234 233 233 233 232 232 232 232 233 233 233 232 232 232 231 231 231 229 229 229 229 229 230 231 231 232 234 235 236 235 234 234 234 233 232 232 234 239 242 242 243 244 245 247 249 251 253
290 289 287 285 283 281 280 279 277 276 274 273 271 269 267 265 264 263 261 260 258 256 254 252 251 249 248 247 246 244 242 241 240 239 237 236 236 236 235 235 234 234 234 233 232 232 232 232 232 233 233 233 232 232 232 231 231 230 228 228 228 228 229 230 231 231 232 233 234 236 236 234 233 234 234 234 233 234 238 243 244 244 245 246 248 249 251 253
293 291 289 287 285 283 282 280 278 277 275 273 271 269 267 264 262 261 260 259 257 256 254 252 251 249 248 247 246 245 243 242 241 239 238 237 235 235 235 235 235 234 234 233 233 232 232 232 232 232 232 232 232 231 231 231 230 229 227 227 228 227 228 229 230 231 231 232 233 234 236 236 234 234 234 234 234 234 236 241 245 246 246 247 248 250 252 254
296 294 292 290 288 286 284 281 279 277 275 272 270 267 265 263 261 259 258 256 255 254 253 252 250 249 248 247 246 245 244 243 242 240 239 238 236 235 234 234 235 234 234 233 232 232 232 231 231 232 232 232 231 231 231 230 230 229 228 227 228 227 228 229 229 231 231 231 232 233 235 237 236 235 234 235 235 235 237 239 243 246 247 248 248 250 252 254
300 298 296 294 291 289 286 283 280 278 275 272 269 266 263 261 259 258 256 254 253 252 251 251 249 248 247 246 245 244 244 243 242 240 238 238 237 235 234 234 234 234 234 233 232 232 232 232 231 231 231 231 230 230 230 230 229 229 228 227 227 227 228 229 229 230 231 232 232 233 234 235 236 236 236 236 236 237 238 239 240 243 246 249 249 251 252 254
304 303 300 298 295 292 289 286 282 279 275 272 269 266 263 260 258 256 255 253 252 250 249 249 248 247 246 246 245 243 243 243 242 241 239 238 237 236 235 234 234 234 233 233 232 232 232 231 231 231 231 230 229 230 230 230 229 228 228 227 226 227 228 228 229 230 231 232 233 233 234 234 235 236 236 237 238 238 239 239 240 241 244 247 249 251 252 254
309 307 305 302 299 296 293 289 285 281 277 274 271 268 265 262 259 257 254 252 250 249 248 247 246 246 245 245 244 243 243 242 241 240 239 238 236 236 235 234 233 233 233 233 232 231 231 231 231 231 230 230 229 229 229 229 229 228 228 228 226 227 228 228 229 230 231 232 233 234 234 234 235 236 237 238 240 240 240 241 241 242 243 245 248 250 252 253
315 312 309 307 304 301 298 294 290 286 282 279 275 271 268 264 261 258 255 253 250 248 246 245 244 244 243 243 243 243 242 241 240 239 238 237 236 235 234 234 234 233 232 232 232 231 231 231 231 231 231 230 229 229 228 229 229 228 228 228 226 227 228 228 229 230 232 232 233 234 234 235 236 238 237 236 239 240 240 241 242 243 243 245 247 250 251 253
320 317 315 312 310 307 303 299 295 291 287 283 279 275 271 267 263 260 257 254 252 249 247 244 243 242 241 241 241 242 241 240 239 238 237 236 236 235 234 233 233 233 232 232 231 231 231 231 231 231 231 230 229 229 228 228 228 227 227 228 227 227 227 228 229 230 232 232 234 236 235 235 236 237 237 235 237 240 240 241 243 244 244 245 247 249 250 252
326 323 320 318 316 313 309 305 300 295 291 287 283 279 275 271 266 261 257 254 252 250 247 245 243 241 239 239 239 240 240 239 239 238 237 236 235 235 233 232 232 232 232 231 231 231 230 230 230 231 230 230 229 229 227 227 227 226 226 227 227 227 227 228 230 230 232 232 233 236 235 234 236 236 237 237 238 240 241 242 243 244 244 244 246 247 249 250
331 328 326 323 321 318 314 309 303 297 292 287 283 280 277 274 271 266 260 255 252 249 247 245 243 241 239 237 238 238 238 237 237 237 236 235 235 234 233 232 232 231 232 231 230 230 230 230 230 230 230 229 229 228 227 227 227 226 225 226 227 227 227 228 229 229 231 232 233 236 234 234 237 236 237 238 238 240 242 242 242 243 243 243 244 246 248 249
336 334 331 329 326 323 318 312 305 299 293 286 281 278 276 274 272 270 266 260 254 249 247 245 243 241 239 237 237 236 235 235 235 235 235 234 234 233 232 232 231 231 230 230 230 229 229 229 229 229 229 229 228 228 228 227 226 227 226 226 227 227 227 229 229 230 232 231 232 235 233 234 236 235 237 239 238 239 241 242 242 243 243 242 243 245 247 248
341 339 337 334 332 328 323 317 311 304 298 290 283 279 276 273 271 269 268 265 260 253 247 245 243 241 239 237 237 236 234 233 233 233 233 233 233 232 232 231 231 230 230 230 230 229 229 229 229 229 229 229 228 228 228 227 227 228 228 227 228 227 228 229 229 230 232 231 232 234 232 234 235 234 237 239 238 239 240 241 242 243 243 243 243 244 246 246
346 344 341 339 336 333 328 323 318 313 307 300 292 285 280 276 272 270 267 265 263 258 251 246 244 242 240 237 237 236 234 232 231 231 231 231 231 231 231 230 230 230 230 229 229 229 228 228 228 228 228 227 227 228 229 230 230 230 229 228 228 228 228 229 228 229 232 232 232 233 232 234 234 233 237 238 238 239 239 240 241 243 243 243 243 243 245 245
349 347 345 343 341 338 334 329 324 320 316 311 303 295 288 282 277 273 268 265 263 261 257 251 245 242 240 238 236 236 235 233 231 229 229 229 229 230 229 229 229 229 229 229 228 228 228 228 228 228 228 228 229 230 231 231 230 229 228 226 226 225 225 228 227 227 232 233 232 233 232 234 233 232 235 237 238 238 239 241 242 243 243 244 244 244 245 245
352 350 348 346 344 342 338 334 330 326 323 318 312 304 297 290 284 279 273 268 264 260 258 254 249 244 240 238 236 235 234 233 231 229 227 226 227 227 228 228 228 228 229 229 228 228 228 228 228 228 229 230 231 230 229 228 227 226 226 225 225 224 224 226 225 224 229 232 232 232 232 233 232 231 234 236 237 238 240 241 243 243 244 244 245 245 245 246
354 352 350 348 347 345 342 338 335 331 327 323 317 310 302 296 291 285 279 273 267 262 258 254 250 246 241 238 237 235 233 232 231 229 226 224 224 225 226 226 227 227 228 228 228 227 227 227 227 227 227 228 227 227 226 226 226 225 225 225 225 225 224 226 225 222 226 230 230 230 231 232 232 230 233 236 237 238 239 240 242 243 244 245 246 246 247 248
356 355 352 351 350 348 346 342 339 335 330 325 321 314 306 300 295 290 285 278 271 263 258 254 250 246 242 238 236 234 232 231 230 229 226 223 223 223 223 224 225 225 226 227 227 227 227 226 226 226 225 225 224 224 225 225 225 225 225 224 224 225 223 225 225 222 225 228 229 230 230 232 232 231 232 235 236 237 238 239 241 243 245 246 247 247 247 248
357 356 355 353 352 350 348 345 342 338 333 328 325 319 312 305 301 295 290 285 277 264 252 248 247 245 242 238 235 232 230 230 229 229 226 223 222 222 222 222 222 223 224 225 226 226 226 225 224 224 224 224 224 225 225 224 224 224 223 223 223 224 224 224 225 224 225 228 229 229 230 231 232 231 232 234 236 237 238 239 241 243 245 246 246 247 247 248
359 358 356 355 353 352 350 347 345 341 336 332 329 325 319 312 307 302 296 291 284 271 251 242 241 243 243 240 235 232 229 228 229 228 225 222 221 221 220 220 220 221 223 224 224 225 224 222 222 223 223 223 224 224 225 224 223 223 223 223 223 223 224 223 223 224 224 226 228 228 229 231 231 232 233 233 235 237 238 239 240 242 244 245 247 247 248 248
359 359 358 356 355 353 351 348 347 345 341 336 332 329 325 320 314 308 301 295 288 279 263 249 241 240 243 242 238 233 229 228 228 228 224 221 220 220 219 218 218 219 221 222 223 223 222 221 220 221 222 222 223 223 223 223 223 223 223 223 224 224 223 224 223 224 225 226 228 228 229 230 230 231 232 233 235 236 238 239 240 241 243 245 247 247 248 248
0 360 359 358 356 354 352 350 349 348 345 341 336 332 329 325 319 313 306 299 291 283 272 262 252 243 243 245 241 233 229 228 228 227 223 220 219 219 219 218 217 217 218 219 220 221 221 220 220 220 219 220 221 222 222 222 222 223 223 223 224 223 223 224 223 224 226 226 227 229 230 230 230 230 231 232 234 235 236 238 239 241 243 245 246 246 247 248
1 1 0 359 357 355 354 352 351 351 349 345 341 337 333 328 323 317 311 304 296 287 277 269 261 251 244 244 242 233 227 228 228 225 221 219 218 218 218 217 216 216 216 217 218 219 219 219 219 219 218 218 219 220 220 221 222 222 222 223 224 223 223 224 223 224 226 226 227 228 230 230 230 230 231 232 233 235 236 237 239 241 242 243 244 245 246 246
1 1 1 360 358 356 355 354 354 353 351 347 344 341 337 331 326 321 316 309 300 290 282 272 263 255 247 243 240 232 226 226 226 223 219 218 216 216 215 215 215 215 215 216 216 218 218 218 218 218 218 218 218 219 219 219 220 221 220 221 223 223 223 223 223 223 225 226 226 228 230 230 230 231 231 232 233 235 236 238 239 240 241 242 243 244 244 245
1 1 1 0 359 358 356 355 356 356 353 349 346 343 340 334 329 325 320 313 304 295 285 276 266 256 248 241 236 230 225 224 222 219 217 216 215 214 213 213 213 213 214 214 214 215 216 216 217 216 217 217 217 218 218 218 220 220 219 220 222 222 222 223 223 224 225 226 226 228 230 231 230 231 232 232 234 236 237 238 238 239 240 241 243 243 244 245
2 2 2 1 360 359 358 357 358 357 354 351 349 345 342 338 333 328 324 318 310 301 291 281 270 257 247 239 232 227 223 222 219 216 215 214 213 212 211 212 212 212 212 212 213 213 213 214 215 215 215 215 215 216 218 218 220 219 218 219 221 221 221 222 223 224 225 225 226 228 230 230 229 230 231 232 233 234 235 235 236 237 239 241 242 243 243 244
2 2 2 2 1 360 359 359 359 358 355 354 352 348 344 340 336 332 328 323 316 307 297 287 273 258 246 236 230 224 221 219 216 213 212 211 210 209 209 210 210 211 210 211 211 211 211 212 213 214 215 215 215 215 216 218 220 218 217 219 220 221 221 222 223 224 224 225 225 227 229 230 229 229 230 232 232 232 234 234 235 236 237 239 240 241 242 243
2 2 2 2 2 1 360 360 360 359 357 355 354 351 347 343 340 336 332 328 322 313 303 293 278 260 246 235 229 223 219 216 213 211 209 208 207 207 207 208 209 210 210 210 210 210 210 211 212 213 213 214 214 214 215 218 219 218 218 219 219 221 221 222 223 225 225 225 225 227 228 229 229 228 230 231 232 233 234 235 236 236 237 239 240 241 242 243
2 2 2 3 3 1 0 1 1 360 359 357 356 353 350 347 343 340 337 334 329 321 311 299 282 262 246 235 227 222 218 213 210 209 207 206 205 205 205 206 207 208 208 209 209 208 209 210 211 212 212 212 213 214 216 218 218 219 220 220 221 222 223 224 225 225 226 226 226 227 228 228 228 227 228 230 231 232 234 235 236 237 238 240 241 242 243 244
2 2 2 3 3 2 1 1 1 1 1 359 357 356 353 350 347 344 341 339 336 328 318 305 285 264 246 233 224 218 214 210 207 206 205 204 204 204 204 205 205 206 206 207 207 207 208 208 209 211 211 212 213 214 215 217 218 219 220 221 221 222 223 224 225 225 226 226 226 227 228 227 227 226 227 230 231 232 234 235 236 238 239 241 242 243 244 245
2 2 2 3 3 2 2 2 2 2 2 1 360 358 355 352 350 348 345 344 343 336 324 311 287 263 244 228 217 209 206 205 204 202 202 202 202 203 204 204 204 205 205 205 205 206 206 207 208 209 210 211 212 213 214 215 216 217 219 219 220 221 221 222 223 223 224 225 225 227 228 227 227 226 226 229 232 232 233 235 236 238 240 241 242 242 243 244
2 2 2 3 3 3 2 2 2 2 3 4 2 359 356 354 352 352 352 350 349 342 329 315 289 260 237 219 206 200 199 199 199 198 198 199 200 201 202 203 203 203 203 204 204 205 205 205 206 208 208 210 211 212 214 215 216 217 218 218 219 219 220 221 222 223 224 225 224 225 227 226 226 225 223 228 231 231 233 234 236 237 239 240 241 241 242 242
3 2 2 2 3 3 3 2 2 3 4 5 4 360 357 355 354 356 358 355 352 346 335 321 291 251 222 206 196 193 192 192 193 194 195 196 198 200 200 202 203 203 203 202 202 203 203 204 205 206 207 209 210 212 213 215 216 217 218 218 218 219 220 221 222 223 224 225 224 224 226 226 225 224 224 227 230 231 232 234 235 236 238 239 240 240 240 241
2 2 2 2 3 4 3 3 3 4 5 4 3 2 360 357 357 1 3 0 356 352 344 330 293 237 205 190 185 187 187 187 188 189 191 193 195 198 200 200 201 202 202 202 202 202 202 202 204 205 206 208 210 211 213 214 215 216 217 218 218 219 219 220 222 223 224 225 224 225 226 226 226 225 224 228 231 231 232 234 234 236 237 238 238 239 238 239
2 2 2 2 3 4 4 3 4 4 4 3 3 3 3 1 360 3 7 4 1 357 351 340 299 218 191 177 175 180 182 183 184 184 187 190 192 195 198 199 200 201 201 201 201 202 202 201 202 204 206 207 209 210 212 214 215 216 217 217 218 219 219 220 221 222 223 225 224 224 226 227 226 225 224 228 231 232 233 234 235 236 237 237 237 238 238 238
1 2 2 2 3 4 4 4 4 4 3 3 4 5 5 4 3 7 11 9 4 1 358 354 326 192 176 163 163 170 174 178 181 182 184 187 190 194 196 198 199 200 200 200 200 201 201 201 202 204 205 207 208 210 212 214 215 217 218 218 218 219 219 220 221 222 223 224 223 223 224 225 225 224 223 226 231 232 233 234 235 236 237 237 237 238 238 239
1 2 3 2 3 4 5 5 4 3 2 4 6 6 6 6 6 11 16 14 8 5 7 16 60 149 155 150 154 162 167 173 177 180 183 186 189 192 195 197 198 198 199 199 200 200 201 201 202 204 205 206 208 210 212 214 215 216 217 218 219 219 219 220 221 222 224 224 224 223 223 225 225 224 223 225 230 232 232 234 235 235 237 238 238 238 239 239
1 2 3 2 2 3 4 5 3 2 2 4 7 8 8 8 9 15 22 21 14 12 21 40 78 108 128 137 146 154 160 168 175 178 182 185 189 191 194 196 197 197 197 198 199 200 200 201 202 203 205 206 208 209 211 213 214 215 216 216 218 218 219 220 221 222 223 224 224 223 224 226 226 225 224 224 228 232 232 233 234 235 236 237 238 239 239 240
1 2 2 3 2 3 3 4 3 2 3 5 8 10 10 10 11 18 28 28 21 22 34 52 78 96 114 128 139 148 154 163 172 179 182 184 188 192 194 196 197 196 197 197 198 199 200 201 202 203 205 206 208 209 211 212 213 214 215 216 217 217 217 218 219 220 222 223 223 222 223 225 225 225 224 224 226 230 231 232 233 234 235 236 237 238 239 240
0 1 2 3 3 2 3 3 3 3 4 5 8 11 12 11 13 21 32 35 30 28 39 55 72 91 110 125 135 144 152 160 168 176 182 185 189 192 193 195 196 196 196 197 198 199 200 200 201 203 205 206 208 209 211 212 213 214 215 216 217 218 217 218 218 219 220 221 221 221 221 223 224 224 225 224 226 229 231 232 233 234 234 235 236 238 239 240
360 0 1 2 2 2 2 3 3 3 4 5 7 11 13 13 15 22 35 42 36 31 37 51 64 84 108 124 135 144 152 160 168 175 181 186 189 191 193 194 194 195 195 196 197 199 199 200 201 203 204 206 208 210 212 213 214 214 216 216 217 218 219 220 220 220 220 221 220 220 220 222 223 224 224 225 226 229 231 231 232 233 234 235 236 237 239 240
359 360 1 1 2 2 2 2 3 4 4 6 7 10 14 14 15 21 34 45 43 34 33 43 56 76 106 125 138 149 157 163 170 175 180 184 188 190 191 193 194 195 195 196 197 198 199 200 201 203 204 205 207 209 211 213 214 215 216 217 219 219 219 220 221 221 222 223 222 221 220 222 224 224 224 225 226 229 230 231 232 233 234 235 236 237 239 240
358 359 360 0 1 1 1 2 3 4 5 6 8 10 14 15 15 19 30 44 48 42 34 34 44 63 95 125 142 152 161 167 172 176 179 183 186 188 190 191 193 194 195 196 197 198 199 200 201 203 204 205 207 208 209 211 213 214 215 217 218 219 219 219 220 220 222 224 224 223 223 224 225 224 225 226 227 229 230 231 232 234 234 236 237 238 239 240
357 358 359 359 0 1 1 1 3 4 5 6 8 10 13 15 16 19 27 38 46 50 45 36 33 43 71 117 145 156 164 170 174 178 181 182 184 187 189 190 191 192 194 196 197 197 199 201 202 203 204 206 207 209 210 211 212 213 214 215 216 217 217 218 219 220 222 223 224 224 224 226 227 226 226 227 228 229 231 231 232 233 234 236 238 239 240 240
356 357 358 359 359 360 0 1 2 4 5 6 7 10 12 14 15 17 24 33 38 46 52 48 37 31 38 88 149 163 167 171 175 179 183 184 184 185 187 188 189 191 193 194 196 197 199 201 203 204 205 206 207 209 210 212 213 214 215 216 216 216 216 216 216 218 219 221 222 224 224 226 228 228 228 229 230 231 232 232 232 233 234 236 238 239 239 240
355 356 357 358 358 359 359 360 1 2 5 6 7 9 11 13 15 16 20 30 35 37 46 54 52 41 29 32 136 167 170 170 174 180 184 185 185 184 185 187 188 189 191 193 195 196 198 201 203 205 206 207 208 209 210 212 213 214 215 216 217 217 217 217 217 217 218 219 221 221 222 225 228 228 228 229 230 232 232 232 232 232 233 235 237 238 239 240
354 355 356 356 357 358 359 359 359 1 4 6 7 8 10 12 14 15 17 24 32 36 39 48 62 63 47 29 35 158 171 173 175 179 182 184 185 185 185 186 188 189 191 192 193 195 198 200 202 205 206 208 209 210 211 212 213 214 214 215 216 217 217 218 219 219 218 219 220 220 221 224 227 227 227 228 230 231 232 232 232 231 232 233 236 237 239 239
353 354 355 355 356 357 358 358 359 359 1 5 7 8 9 11 13 14 16 20 26 33 37 41 57 75 74 59 58 105 163 180 180 180 182 183 184 186 187 187 188 189 190 191 192 194 196 198 201 204 206 208 210 211 212 213 214 214 215 216 216 216 216 217 218 219 219 219 219 219 220 224 227 226 226 227 228 230 232 233 233 232 232 233 235 237 238 240